GW3202 Weather Reports


Display with metric or nautical units.
time (UTC)temp
F
wind
direction
speed
MPH
gust
MPH
rain 1hr
in
rain 24hr
in
rain mn
in
humidity
%
barometer
mb
20260508043003 70 131 2.0 7.0 0.00 0.00 0.00 48 1019.6
20260508042003 70 339 4.0 10.0 0.00 0.00 0.00 47 1019.3
20260508041004 70 148 4.0 14.0 0.00 0.00 0.00 47 1018.8
20260508040003 70 161 7.0 20.0 0.00 0.00 0.00 47 1018.7
20260508035003 70 121 10.0 26.0 0.00 0.00 0.00 47 1018.8
20260508034003 71 132 7.0 26.0 0.00 0.00 0.00 48 1018.7
20260508033005 71 144 19.0 23.0 0.00 0.00 0.00 53 1018.3
20260508032004 71 155 6.0 24.0 0.00 0.00 0.00 53 1018.1
20260508031003 71 121 8.0 28.0 0.00 0.00 0.00 54 1018.0
20260508030003 71 143 13.0 25.0 0.00 0.00 0.00 54 1017.8
20260508025004 71 172 8.0 25.0 0.00 0.00 0.00 54 1017.6
20260508024003 71 169 9.0 25.0 0.00 0.00 0.00 54 1017.7
20260508023004 71 153 17.0 26.0 0.00 0.00 0.00 54 1017.6
20260508021003 72 142 16.0 29.0 0.00 0.00 0.00 57 1017.4
20260508020003 72 132 7.0 24.0 0.00 0.00 0.00 57 1017.3
20260508015003 72 127 13.0 23.0 0.00 0.00 0.00 55 1017.3
20260508013004 73 135 9.0 24.0 0.00 0.00 0.00 59 1016.8
20260508011003 74 143 13.0 28.0 0.00 0.00 0.00 56 1016.4
20260508010003 75 127 12.0 28.0 0.00 0.00 0.00 54 1016.3
20260508005003 77 124 11.0 20.0 0.00 0.00 0.00 52 1016.2
20260508004004 77 149 10.0 23.0 0.00 0.00 0.00 51 1016.1
20260508003003 77 163 9.0 26.0 0.00 0.00 0.00 51 1015.9
20260508002004 78 131 7.0 26.0 0.00 0.00 0.00 51 1015.9
20260508000003 79 135 9.0 22.0 0.00 0.00 0.00 48 1015.7
20260507234003 80 143 9.0 24.0 0.00 0.00 0.00 47 1015.7
20260507233003 80 177 7.0 22.0 0.00 0.00 0.00 46 1016.0
20260507232005 81 147 11.0 24.0 0.00 0.00 0.00 45 1016.1
20260507230004 82 170 12.0 24.0 0.00 0.00 0.00 42 1016.0
20260507225010 83 191 9.0 22.0 0.00 0.00 0.00 41 1016.0
20260507223005 83 168 8.0 22.0 0.00 0.00 0.00 41 1015.9
20260507222004 84 168 5.0 22.0 0.00 0.00 0.00 40 1016.2
20260507215004 84 168 7.0 23.0 0.00 0.00 0.00 44 1016.6
20260507214003 84 161 12.0 25.0 0.00 0.00 0.00 45 1016.5
20260507213005 83 156 17.0 25.0 0.00 0.00 0.00 47 1016.5
20260507212004 85 174 8.0 20.0 0.00 0.00 0.00 44 1016.4
20260507210005 86 152 8.0 21.0 0.00 0.00 0.00 40 1017.0
20260507205004 86 189 7.0 21.0 0.00 0.00 0.00 39 1017.2
20260507204004 86 149 9.0 21.0 0.00 0.00 0.00 39 1017.0
20260507203004 86 164 7.0 20.0 0.00 0.00 0.00 37 1017.2
20260507202004 86 179 7.0 16.0 0.00 0.00 0.00 36 1017.4
20260507201003 87 161 6.0 20.0 0.00 0.00 0.00 36 1017.6
20260507200003 86 166 6.0 18.0 0.00 0.00 0.00 36 1017.7
20260507194004 87 148 5.0 16.0 0.00 0.00 0.00 34 1018.0
20260507192004 87 176 6.0 17.0 0.00 0.00 0.00 33 1018.1
20260507191003 88 160 3.0 9.0 0.00 0.00 0.00 33 1018.3
20260507185004 88 290 2.0 12.0 0.00 0.00 0.00 29 1018.6
20260507184003 86 168 6.0 12.0 0.00 0.00 0.00 30 1018.5
20260507183003 87 173 3.0 12.0 0.00 0.00 0.00 29 1018.6
20260507182003 87 155 7.0 12.0 0.00 0.00 0.00 30 1018.7
20260507181004 88 170 1.0 8.0 0.00 0.00 0.00 31 1018.8
20260507180003 87 282 3.0 8.0 0.00 0.00 0.00 33 1018.9
20260507175003 87 78 2.0 8.0 0.00 0.00 0.00 34 1019.1
20260507174003 85 158 1.0 6.0 0.00 0.00 0.00 33 1019.3
20260507173004 84 147 2.0 6.0 0.00 0.00 0.00 32 1019.5
20260507172004 84 72 1.0 6.0 0.00 0.00 0.00 33 1019.5
20260507171004 83 227 0.0 6.0 0.00 0.00 0.00 31 1019.5
20260507170003 82 327 2.0 6.0 0.00 0.00 0.00 33 1019.7
20260507165003 80 321 4.0 6.0 0.00 0.00 0.00 37 1019.7
20260507163004 81 259 1.0 5.0 0.00 0.00 0.00 36 1019.7
20260507153003 77 117 1.0 3.0 0.00 0.00 0.00 50 1020.1
20260507152005 75 54 1.0 3.0 0.00 0.00 0.00 58 1020.2
20260507151006 73 340 2.0 3.0 0.00 0.00 0.00 62 1020.1
20260507150006 74 188 1.0 3.0 0.00 0.00 0.00 62 1020.2
20260507145004 72 53 1.0 3.0 0.00 0.00 0.00 65 1020.1
20260507144004 73 99 1.0 3.0 0.00 0.00 0.00 64 1020.1
20260507143003 70 35 1.0 3.0 0.00 0.00 0.00 66 1020.3
20260507142004 69 329 1.0 2.0 0.00 0.00 0.00 67 1020.2
20260507141003 69 41 0.0 3.0 0.00 0.00 0.00 69 1020.0
20260507135004 67 149 1.0 2.0 0.00 0.00 0.00 72 1020.0
20260507134004 64 98 2.0 3.0 0.00 0.00 0.00 77 1020.0
20260507133004 63 120 3.0 3.0 0.00 0.00 0.00 79 1020.0
20260507132004 62 113 1.0 2.0 0.00 0.00 0.00 80 1020.1
20260507131004 62 35 0.0 2.0 0.00 0.00 0.00 80 1019.9
20260507130003 61 92 2.0 2.0 0.00 0.00 0.00 82 1019.9
20260507125003 60 126 1.0 3.0 0.00 0.00 0.00 82 1019.8
20260507124004 60 107 3.0 3.0 0.00 0.00 0.00 83 1019.8
20260507123004 60 240 0.0 1.0 0.00 0.00 0.00 83 1019.8
20260507122004 60 256 0.0 2.0 0.00 0.00 0.00 82 1019.7
20260507121007 60 289 1.0 3.0 0.00 0.00 0.00 81 1019.6
20260507120008 62 262 0.0 3.0 0.00 0.00 0.00 81 1019.7
20260507114003 62 113 1.0 3.0 0.00 0.00 0.00 81 1019.6
20260507113005 62 145 0.0 3.0 0.00 0.00 0.00 81 1019.4
20260507112004 62 108 1.0 3.0 0.00 0.00 0.00 81 1019.4
20260507111003 61 123 2.0 2.0 0.00 0.00 0.00 81 1019.3
20260507110004 61 110 2.0 2.0 0.00 0.00 0.00 81 1019.2
20260507104004 60 252 1.0 3.0 0.00 0.00 0.00 80 1019.2
20260507103004 62 245 1.0 2.0 0.00 0.00 0.00 79 1019.0
20260507102006 62 255 0.0 3.0 0.00 0.00 0.00 81 1019.0
20260507101004 62 93 2.0 3.0 0.00 0.00 0.00 80 1019.0
20260507100004 62 133 0.0 2.0 0.00 0.00 0.00 80 1019.1
20260507095004 62 155 1.0 2.0 0.00 0.00 0.00 79 1019.1
20260507094004 62 90 0.0 2.0 0.00 0.00 0.00 79 1019.2
20260507093003 62 88 2.0 2.0 0.00 0.00 0.00 79 1019.0
20260507092003 62 316 0.0 3.0 0.00 0.00 0.00 79 1019.3
20260507090005 64 98 0.0 3.0 0.00 0.00 0.00 79 1019.2
20260507085004 64 131 1.0 2.0 0.00 0.00 0.00 78 1019.2
20260507082004 64 285 0.0 2.0 0.00 0.00 0.00 76 1019.6
20260507075004 64 67 2.0 3.0 0.00 0.00 0.00 75 1019.9
20260507074003 65 113 2.0 3.0 0.00 0.00 0.00 75 1020.0
20260507073004 65 107 1.0 3.0 0.00 0.00 0.00 74 1020.2
20260507072004 65 110 2.0 5.0 0.00 0.00 0.00 73 1020.0
20260507071006 65 129 3.0 5.0 0.00 0.00 0.00 73 1020.3
20260507070009 65 150 1.0 3.0 0.00 0.00 0.00 74 1020.3
20260507065004 65 15 0.0 3.0 0.00 0.00 0.00 73 1020.5
20260507064004 65 96 2.0 3.0 0.00 0.00 0.00 71 1020.5
20260507062004 65 113 1.0 3.0 0.00 0.00 0.00 70 1020.5
20260507060004 65 81 1.0 3.0 0.00 0.00 0.00 69 1020.7
20260507055004 65 105 1.0 3.0 0.00 0.00 0.00 69 1020.8
20260507054004 65 254 0.0 5.0 0.00 0.00 0.00 69 1020.7
20260507053004 65 269 1.0 6.0 0.00 0.00 0.00 68 1020.8
20260507052004 66 333 3.0 5.0 0.00 0.00 0.00 65 1020.6
20260507051004 67 273 1.0 2.0 0.00 0.00 0.00 64 1020.5
20260507050004 67 264 2.0 7.0 0.00 0.00 0.00 63 1020.6
20260507045004 69 6 1.0 5.0 0.00 0.00 0.00 66 1020.5
20260507044004 69 180 0.0 2.0 0.00 0.00 0.00 71 1020.6